Location: La Fredeussais
(48.1780°N, 1.3980°W)
Time: 03:34:55
(UTC+00:00)

Cosmos 990 Rocket - Pass Details

Date: 09 May 2021
Orbit: 746 x 769 km, 74.0° (Epoch: 13 June)

Event Time Altitude Azimuth Distance (km) Brightness Sun altitude
Exits shadow 22:40:07 51° 167° (SSE) 960 4.1 -21.7°
Maximum altitude 22:41:18 68° 109° (ESE) 827 3.9 -21.8°
Drops below altitude 10° 22:46:31 10° 27° (NNE) 2,318 7.0 -22.1°
Sets 22:48:55 0° 25° (NNE) 3,250 7.9 -22.2°
